Home   Weather   Recklinghausen   Past weeks

Flag for Germany Past Weather in Recklinghausen, North Rhine-Westphalia, Germany — Yesterday and Last 2 Weeks

Now
39 °F

Broken clouds.


Feels Like: 31 °F
Forecast: 36 / 38 °F
Wind: 14 mph from Southwest

Location: Dortmund / Wickede

Current Time: Jan 19, 2018 at 3:12:05 pm

Latest Report: Jan 19, 2018 at 2:20 pm


Visibility: N/A

Pressure: 29.77 "Hg

Humidity: 75%

Dew Point: 32 °F

Location of RecklinghausenLocation

Past Weather in Recklinghausen — Graph

°F

Recklinghausen Temperature Yesterday

Maximum temperature yesterday: 50 °F (at 10:50 am)
Minimum temperature yesterday: 36 °F (at 10:20 pm)
Average temperature yesterday: 40 °F

High & Low Weather Summary for the Past Weeks

 TemperatureHumidityPressure
High52 °F (Jan 4, 7:20 pm)100% (Jan 12, 9:20 am)30.33 "Hg (Jan 12, 9:20 am)
Low34 °F (Jan 7, 5:50 pm)54% (Jan 18, 11:20 am)29.09 "Hg (Jan 18, 10:50 am)
Average40 °F80%29.84 "Hg
* Reported Jan 4 2:20 pm — Jan 19 2:20 pm, Recklinghausen. Weather by CustomWeather, © 2018

Note: Actual official high and low records may vary slightly from our data, if they occured in-between our weather recording intervals... More about our weather records

Advertising

Recklinghausen Weather History for the Previous 24 Hours

Scroll right to see more
 ConditionsComfort  
Time TempWeatherWind HumidityBarometerVisibility
2:20 pm
Fri, Jan 19
39 °FBroken clouds.14 mph75%29.77 "HgN/A
1:50 pm39 °FOvercast.14 mph75%29.77 "HgN/A
1:20 pm39 °FMostly cloudy.15 mph81%29.77 "HgN/A
12:50 pm39 °FBroken clouds.12 mph81%29.77 "HgN/A
11:50 am37 °FOvercast.15 mph87%29.77 "HgN/A
9:20 am36 °FLight rain. Low clouds.12 mph87%29.71 "HgN/A
7:50 am36 °FLight rain. Low clouds.5 mph93%29.68 "Hg3 mi
6:50 am34 °FLight rain. Low clouds.7 mph93%29.65 "Hg3 mi
5:20 am34 °FLight rain. Low clouds.3 mph93%29.62 "Hg4 mi
4:50 am34 °FMostly cloudy.7 mph93%29.62 "Hg2 mi
4:20 am34 °FLow clouds.8 mph93%29.62 "Hg6 mi
3:50 am34 °FLow clouds.5 mph93%29.59 "Hg4 mi
3:20 am34 °FLow clouds.6 mph93%29.59 "Hg4 mi
2:20 am36 °FMostly cloudy.7 mph93%29.59 "Hg4 mi
1:50 am37 °FMostly cloudy.6 mph87%29.59 "HgN/A
1:20 am37 °FMostly cloudy.7 mph81%29.59 "HgN/A
12:50 am37 °FMostly cloudy.6 mph87%29.59 "HgN/A
12:20 am36 °FOvercast.6 mph87%29.59 "HgN/A
11:50 pm
Thu, Jan 18
36 °FOvercast.7 mph87%29.59 "HgN/A
11:20 pm36 °FPassing clouds.7 mph87%29.59 "HgN/A
10:50 pm36 °FPassing clouds.9 mph87%29.59 "HgN/A
10:20 pm36 °FPassing clouds.9 mph81%29.56 "HgN/A
9:20 pm37 °FPassing clouds.9 mph81%29.56 "HgN/A
8:50 pm39 °FOvercast.8 mph75%29.56 "HgN/A
8:20 pm37 °FPassing clouds.8 mph81%29.56 "HgN/A
7:50 pm37 °FPassing clouds.9 mph81%29.56 "HgN/A
7:20 pm39 °FPassing clouds.10 mph75%29.56 "HgN/A
6:50 pm39 °FOvercast.14 mph75%29.56 "HgN/A
6:20 pm39 °FMostly cloudy.14 mph75%29.53 "HgN/A
5:50 pm39 °FMostly cloudy.15 mph81%29.53 "HgN/A
5:20 pm39 °FMostly cloudy.16 mph81%29.53 "HgN/A
4:50 pm39 °FMostly cloudy.15 mph81%29.50 "HgN/A
4:20 pm39 °FPartly sunny.20 mph81%29.50 "HgN/A
3:50 pm39 °FSprinkles. Broken clouds.16 mph81%29.47 "HgN/A
3:20 pm39 °FScattered showers. Broken clouds.18 mph81%29.47 "HgN/A
Weather by CustomWeather, © 2018

See weather overview